Theta_e
308 308 307 306 305 306 307 307 306 306 307 307 307 307 307 306 306 306 306 306 306 306 306 306 306 306 307 307 307 308 308 308 308 307 306 306 307 307 307 307 307 307 307 306 306 306 305 305 305 304 304 304 304 304 303 303 304 303 302 302 301 301 301 300 300 299 299 298 297
308 308 307 305 304 306 308 307 307 307 307 308 308 307 307 306 306 306 306 306 306 306 306 306 306 306 307 307 307 307 308 308 308 307 307 307 307 307 307 307 307 307 306 306 306 305 305 305 305 304 304 303 303 303 303 303 303 302 301 301 301 300 300 299 298 298 297 297 296
309 309 309 309 308 308 308 308 308 308 308 308 308 308 307 307 306 306 306 306 306 306 306 305 306 306 307 307 308 307 308 308 308 308 307 307 307 307 307 307 307 306 306 306 306 306 305 305 304 303 303 303 303 302 302 303 302 302 301 300 300 299 299 298 297 297 296 295 295
311 310 310 309 309 308 308 308 308 308 308 308 308 307 307 307 306 306 306 306 306 306 306 306 306 307 307 307 307 307 307 306 307 307 307 307 307 306 306 306 306 306 306 306 306 306 305 305 304 303 303 303 303 302 302 302 302 301 301 301 300 299 298 297 296 296 295 295 295
311 310 309 309 309 309 308 308 308 308 308 308 307 307 307 307 307 306 306 306 305 306 306 307 306 307 307 307 307 307 307 307 305 305 307 307 306 306 306 306 306 306 306 306 306 306 305 305 304 304 303 303 303 303 302 303 302 301 301 300 299 298 296 296 296 295 295 295 295
309 309 309 309 309 309 309 308 308 308 308 307 307 306 306 306 306 305 305 305 305 306 306 306 305 305 305 306 306 307 307 308 307 306 306 306 306 306 307 307 306 306 306 306 306 306 305 305 304 303 303 303 303 303 303 302 301 300 299 297 297 296 296 295 295 295 295 295 294
308 308 308 308 308 308 308 308 308 308 307 307 306 306 306 306 305 305 305 305 305 306 305 304 305 305 305 306 306 306 307 307 307 307 306 306 306 306 306 306 306 306 306 306 306 305 305 304 303 303 302 301 302 302 302 301 300 298 297 295 295 295 295 295 295 295 294 294 294
307 307 307 308 308 308 308 308 307 307 307 306 306 306 306 306 306 306 306 305 305 305 305 305 306 306 306 306 306 306 307 307 306 306 306 306 306 306 306 306 306 305 305 305 305 305 305 304 303 303 302 301 300 300 300 300 298 297 295 295 295 295 295 294 294 294 294 293 293
307 307 308 308 308 308 308 307 307 307 306 306 306 306 306 306 306 306 305 304 304 304 305 305 306 306 306 306 306 306 306 306 306 306 306 306 306 305 305 305 305 305 305 305 305 305 305 304 303 302 301 300 300 300 299 299 297 296 295 294 294 294 294 294 294 294 294 293 293
307 307 308 308 308 307 307 307 307 307 306 306 306 306 305 303 304 305 305 304 304 305 305 305 306 306 306 306 306 306 306 306 306 305 306 305 305 305 305 304 304 304 304 304 304 304 303 303 302 301 300 300 299 299 298 298 296 295 295 294 294 294 294 294 295 294 294 294 293
306 307 307 307 307 307 306 306 306 306 306 306 305 305 305 303 304 304 304 304 304 305 305 305 305 305 305 306 306 306 306 305 305 305 305 304 304 304 304 303 303 303 303 303 303 302 301 300 299 299 299 299 298 298 297 297 296 296 295 295 296 296 296 296 296 296 295 295 295
306 307 307 307 306 306 306 306 305 305 305 305 305 305 305 305 305 304 304 304 304 304 304 305 305 305 305 305 305 305 304 305 304 304 304 304 304 304 303 303 302 302 302 302 302 301 300 299 298 298 298 298 298 297 297 296 296 296 296 296 296 296 296 296 296 296 296 296 295
306 307 307 306 307 306 306 305 305 305 305 305 304 304 304 304 304 304 304 304 303 303 303 304 304 304 304 304 304 304 304 303 303 303 303 303 303 302 302 301 301 301 301 301 301 300 299 299 298 297 297 297 298 298 297 297 296 296 296 295 296 296 296 296 296 296 296 296 295
307 307 306 306 306 306 305 305 305 305 304 304 304 304 304 304 303 303 303 303 303 303 303 303 303 303 303 303 303 302 302 302 302 302 302 302 302 301 301 300 300 300 300 300 300 300 299 298 298 298 297 297 298 298 298 298 297 296 296 296 296 296 296 296 296 296 296 296 295
306 306 306 306 306 306 305 305 304 304 304 304 304 303 303 303 303 303 303 303 303 303 303 303 303 302 302 302 302 302 302 302 302 302 301 300 300 300 299 299 299 299 299 299 299 299 299 298 298 298 298 297 297 298 298 298 297 297 297 297 296 296 296 296 296 296 296 295 295
306 306 306 306 305 305 304 304 304 303 303 303 303 302 302 302 302 302 302 302 302 302 302 302 302 302 302 302 302 302 301 301 301 301 300 299 299 299 299 299 299 298 298 298 299 299 299 299 299 299 298 298 298 297 297 297 297 297 297 296 296 296 295 295 295 295 295 295 294
305 305 305 305 304 304 303 303 303 302 302 302 301 301 301 301 301 301 300 301 301 301 301 302 302 302 302 302 302 301 301 301 300 299 299 298 298 298 298 298 298 298 298 298 298 298 298 298 299 299 299 299 298 298 297 297 297 297 296 296 296 296 295 295 295 295 295 294 294
305 304 304 303 303 303 302 302 301 301 300 300 300 300 300 300 299 299 299 300 301 301 301 301 302 302 302 302 301 300 299 299 298 298 297 297 297 297 297 297 297 297 297 297 297 296 297 297 297 298 298 298 298 297 297 296 296 296 296 296 295 295 295 295 295 294 294 294 293
304 303 303 302 302 301 301 300 300 300 300 300 300 300 300 300 300 300 300 301 301 301 301 301 301 301 300 300 299 298 297 297 296 296 296 296 296 296 296 296 296 296 295 295 295 294 295 295 295 295 295 296 296 296 296 295 295 294 294 294 294 294 294 294 294 294 294 294 293
302 302 301 301 301 301 300 300 300 300 300 300 301 301 301 301 301 301 301 301 301 301 301 300 300 299 298 297 297 296 296 296 296 295 295 295 295 294 294 294 294 294 294 293 293 293 293 293 293 293 293 293 294 294 294 294 294 293 293 293 293 293 293 293 293 293 293 293 293
301 301 300 300 300 300 299 300 300 300 301 301 301 301 301 301 301 301 301 301 301 300 300 299 297 296 295 295 294 294 294 295 294 294 293 293 293 292 292 292 292 292 292 292 292 291 291 291 291 292 292 292 292 293 293 293 293 293 293 293 293 292 292 292 292 292 292 292 292
300 300 300 300 300 299 299 300 300 301 301 301 301 301 301 300 300 300 300 300 299 298 297 296 295 294 293 293 293 293 293 293 293 293 292 292 292 291 292 292 291 291 291 291 291 291 290 291 291 291 292 291 292 292 292 291 292 292 292 292 292 292 292 292 292 292 292 291 291
299 299 299 298 299 298 299 299 300 300 300 300 300 300 300 300 299 299 299 299 298 297 296 295 295 294 294 294 294 293 293 293 293 292 292 292 292 292 292 292 292 291 291 291 290 290 290 290 290 290 291 291 291 291 291 291 290 290 290 290 291 291 291 291 291 291 291 291 291
298 297 297 298 298 298 298 299 299 299 299 299 299 299 299 299 299 298 298 298 297 297 296 296 296 296 295 295 294 294 293 293 292 292 292 293 292 292 292 292 292 291 291 291 290 289 289 288 289 289 289 290 290 290 290 291 290 290 290 290 290 290 290 290 291 291 291 290 291
298 297 297 297 298 298 298 299 299 298 298 298 298 298 298 298 298 298 297 298 297 297 297 296 296 296 296 295 294 294 293 292 292 292 292 292 292 292 292 292 292 292 292 291 289 288 287 287 287 288 288 288 289 289 290 290 290 290 289 289 289 289 289 289 289 290 290 290 290
298 298 297 298 298 298 298 298 298 298 297 297 297 297 297 297 297 297 297 297 296 296 296 296 295 295 294 294 294 293 292 292 291 291 291 290 290 291 291 291 291 292 291 290 289 288 287 287 287 287 287 288 288 288 289 289 289 289 289 289 289 288 288 288 288 289 289 290 290
297 298 298 298 298 298 297 297 297 297 296 296 296 296 296 296 296 295 295 295 295 295 295 295 294 294 293 294 293 293 292 292 291 291 290 290 290 290 290 290 291 291 291 289 288 287 287 287 286 286 287 287 288 288 288 288 289 289 289 289 289 288 288 288 288 288 288 289 289
297 297 297 297 297 297 297 297 296 296 295 295 295 295 294 294 294 294 294 294 294 294 294 294 294 294 294 293 293 293 292 292 292 292 291 291 290 289 289 289 289 289 289 288 287 287 286 286 286 286 286 286 287 288 288 288 288 288 288 288 288 289 288 288 288 288 288 288 288
297 297 297 297 296 296 296 295 295 295 294 294 294 293 293 293 293 293 293 293 293 293 293 293 293 293 293 293 293 292 292 292 292 291 291 290 290 290 289 289 288 288 288 287 286 285 285 285 286 286 287 287 287 288 288 288 288 288 288 288 288 288 288 288 288 288 288 288 288
297 297 297 296 295 295 294 294 294 293 293 293 293 293 293 293 293 293 292 292 292 292 293 293 293 293 292 292 292 292 291 291 291 290 290 289 289 288 288 288 288 288 287 286 285 285 285 286 286 286 287 287 287 287 288 288 288 288 288 288 288 288 288 288 288 288 288 288 287
296 296 295 295 294 294 293 293 293 293 293 293 293 292 292 292 292 292 292 292 292 292 292 292 292 292 292 291 291 291 290 290 290 289 289 288 288 287 288 288 288 288 286 284 284 285 285 286 286 286 286 286 286 287 288 288 288 288 288 288 288 288 288 288 288 288 287 287 287
295 295 294 293 293 293 292 292 293 293 293 293 292 292 292 292 292 292 292 292 291 291 291 291 291 291 290 290 290 290 289 289 289 289 289 288 288 288 288 288 289 288 286 284 284 284 285 285 285 285 285 285 285 286 287 288 288 288 288 288 288 288 288 288 288 288 287 287 287
294 293 293 292 292 292 292 292 293 293 293 293 293 292 292 292 292 292 292 292 291 291 291 290 290 290 290 289 289 289 289 289 289 288 288 288 288 288 288 288 289 287 285 283 284 284 284 284 284 284 284 284 285 286 287 287 287 288 288 288 288 288 288 288 288 287 287 287 287
293 292 292 291 291 291 292 292 292 293 293 292 292 293 292 292 292 292 291 291 291 290 290 290 290 290 289 289 289 289 289 289 289 289 288 288 288 288 287 288 289 287 284 283 283 283 283 283 283 284 283 283 284 285 286 287 287 287 287 287 288 288 288 288 288 287 287 287 287
292 292 291 291 291 291 291 292 292 292 292 292 293 293 292 292 292 291 291 290 290 290 290 290 290 290 289 289 289 289 289 289 289 288 288 288 288 287 287 287 288 286 284 283 283 283 283 283 283 283 283 283 284 285 286 286 286 286 287 287 287 287 287 288 287 287 287 287 287
292 292 292 292 291 291 291 291 292 292 292 293 293 292 292 292 291 291 291 290 289 290 289 289 289 289 289 289 289 288 288 288 288 288 288 288 287 287 286 286 287 286 285 283 283 283 283 282 283 283 283 283 284 285 285 285 285 286 286 286 286 287 287 287 287 287 286 286 286
291 292 293 292 291 291 291 291 292 292 292 292 292 292 291 291 291 291 291 290 289 289 289 289 288 288 288 288 288 288 288 288 288 288 287 287 287 286 286 285 286 286 285 284 283 283 282 282 282 282 283 283 284 284 285 285 285 285 285 286 286 286 286 286 286 286 285 285 285
291 291 292 291 291 291 291 292 292 292 292 291 291 291 291 291 291 290 290 289 289 288 288 288 288 288 288 288 287 288 288 288 288 287 287 287 286 286 285 284 285 285 285 284 283 283 282 282 282 282 282 283 284 284 284 284 284 285 285 285 285 285 285 285 284 284 284 284 284
290 290 290 291 291 291 291 291 291 291 291 291 291 291 291 290 290 290 289 289 289 288 288 288 287 288 288 287 287 287 287 287 287 287 287 287 286 285 284 284 284 285 285 284 283 283 282 282 282 282 282 283 283 284 284 284 284 283 283 283 283 283 283 284 284 284 284 284 283
290 291 291 291 291 291 291 291 291 291 291 291 291 290 290 290 289 289 289 289 289 288 288 288 287 288 287 286 286 286 287 287 287 287 287 287 286 285 284 284 284 285 284 284 283 283 282 282 282 282 282 283 283 283 283 283 283 283 283 283 283 282 283 283 283 283 283 283 283
291 291 291 291 291 291 291 291 290 291 291 291 290 290 289 289 289 289 289 289 289 288 288 288 287 287 287 286 286 286 286 286 286 286 286 286 286 285 284 285 285 285 284 284 283 282 282 282 282 282 282 282 283 283 283 282 282 282 282 282 282 282 282 282 282 282 282 282 283
Wind_Speed
3 2 1 1 1 2 2 2 3 3 4 5 6 6 7 8 8 8 8 8 8 8 8 8 8 8 9 10 10 10 9 8 7 6 6 7 7 7 7 6 5 4 3 2 1 1 2 2 2 1 1 0 1 1 1 1 2 2 2 3 3 3 3 3 3 4 4 4 3
4 3 2 0 1 2 2 3 3 4 5 5 6 7 7 7 7 8 8 8 8 8 8 8 8 9 10 11 10 9 9 9 8 7 7 7 6 6 5 5 3 2 2 2 3 3 2 2 2 1 1 1 1 2 2 2 2 3 3 3 3 2 2 3 3 4 4 4 4
4 4 3 3 3 4 4 4 5 6 7 7 6 7 7 7 7 7 7 8 9 9 8 8 8 9 10 11 9 9 9 9 8 8 7 6 5 4 4 4 3 3 4 3 4 3 2 3 2 2 2 2 2 2 2 2 3 3 3 4 3 3 2 3 3 3 3 3 4
4 4 5 5 7 7 6 6 7 8 8 7 7 7 7 7 6 7 7 8 9 9 8 8 8 8 9 9 9 9 9 9 9 8 7 5 4 4 5 5 4 4 4 3 3 3 4 4 3 3 3 3 3 3 3 3 3 3 3 3 3 3 3 3 3 3 3 3 4
4 5 5 5 6 7 6 6 7 8 7 6 6 6 7 7 7 7 7 8 8 8 9 10 9 8 8 9 10 10 10 9 8 7 6 6 5 5 6 6 5 4 4 4 4 4 4 5 4 3 3 4 3 3 3 3 4 3 3 3 3 3 3 4 4 4 3 3 3
5 5 5 5 6 6 6 6 7 8 7 6 7 8 8 7 7 8 9 9 10 10 11 11 9 9 9 10 10 10 10 9 8 7 7 6 6 6 6 6 5 5 4 5 5 5 5 5 4 4 4 4 4 3 3 3 3 3 3 3 3 3 4 4 4 4 4 4 5
6 6 6 6 6 6 6 7 7 7 7 7 9 10 10 10 10 11 12 11 11 11 10 9 8 9 9 10 10 10 9 8 8 7 7 7 6 6 6 6 6 6 6 6 6 6 6 7 5 4 3 3 2 2 3 3 3 3 4 4 4 4 4 5 4 4 5 6 7
6 7 7 7 7 7 7 7 7 7 7 7 9 11 12 12 13 13 12 12 11 10 9 8 9 10 10 10 10 10 9 9 8 8 7 7 7 7 7 7 7 7 7 8 8 8 8 7 5 4 3 2 2 2 3 4 4 5 5 5 5 4 5 5 5 5 6 7 8
6 7 7 7 7 7 7 8 8 8 8 9 10 11 12 12 12 12 12 11 10 10 10 9 10 11 11 11 11 10 9 8 8 8 7 7 7 8 8 8 8 8 8 8 9 9 8 6 4 3 3 3 3 4 5 6 6 6 6 6 5 5 5 5 6 6 7 8 9
7 7 7 7 7 7 8 8 8 9 10 10 11 12 12 12 12 11 11 9 10 10 10 10 10 11 11 11 10 10 9 8 8 8 8 8 8 8 9 8 9 9 9 9 8 8 7 5 4 4 4 4 4 5 6 7 8 8 7 6 6 7 8 8 8 8 9 8 9
8 8 8 7 8 8 8 8 8 9 10 10 11 12 12 12 12 11 11 10 10 11 12 11 11 11 10 10 10 9 9 8 8 8 8 8 8 9 9 9 10 10 10 9 8 6 5 4 5 5 6 5 6 6 8 9 9 10 9 8 9 9 10 10 10 10 10 10 11
8 8 8 8 8 8 8 8 8 9 10 11 12 12 13 13 13 12 12 11 11 12 12 11 11 11 10 9 9 8 8 8 8 8 8 9 9 10 10 11 11 11 10 9 7 6 5 5 6 7 8 8 7 7 8 10 10 11 10 10 10 10 10 11 11 10 9 10 11
8 8 8 8 8 8 8 8 8 9 10 11 12 12 12 13 13 13 12 12 11 11 10 10 10 10 9 9 8 8 8 8 9 9 9 9 10 10 11 11 11 11 10 9 7 7 7 7 8 9 10 10 9 8 9 11 11 11 11 10 10 10 10 10 10 10 9 10 10
8 8 8 8 8 8 8 9 9 9 10 12 12 12 12 13 13 12 11 11 11 11 10 10 9 8 7 8 8 8 9 9 10 10 11 10 11 11 11 11 11 10 9 8 8 8 9 9 10 10 11 11 11 10 10 11 11 11 11 11 10 10 10 10 10 9 9 9 9
8 8 8 8 9 9 9 9 9 9 10 12 12 12 12 11 12 11 10 10 10 10 10 9 8 7 7 7 8 9 10 10 11 11 12 11 11 11 11 11 11 11 10 9 9 9 10 11 11 11 11 11 11 11 11 11 11 10 10 10 10 9 9 9 9 9 9 9 9
8 8 8 9 9 9 9 10 9 9 10 11 11 11 11 10 10 10 9 9 9 8 8 9 8 7 7 7 7 8 10 10 11 12 12 12 12 11 11 11 11 11 11 11 11 10 11 11 11 11 12 12 11 11 10 10 10 10 9 9 9 9 8 8 8 8 8 9 9
8 9 9 9 10 10 10 10 9 9 10 10 11 10 9 9 9 9 8 8 7 8 8 9 8 8 8 8 8 9 10 11 12 12 12 12 11 11 11 11 11 11 12 12 12 11 11 11 11 11 12 12 11 10 9 8 8 8 8 8 8 8 8 8 8 8 8 9 9
8 9 9 10 10 11 11 11 10 10 9 10 9 9 8 7 7 7 7 7 7 8 8 9 8 8 9 10 10 10 10 11 11 11 11 11 11 11 10 11 11 11 11 11 11 11 11 10 10 10 10 10 9 8 8 6 6 5 5 6 6 7 7 7 7 7 8 8 9
9 9 10 10 10 10 10 10 9 9 8 8 8 7 7 7 7 7 6 6 7 7 8 8 8 9 10 11 11 10 9 9 9 10 10 10 10 10 10 10 11 11 10 10 10 10 10 9 9 9 9 9 8 7 6 5 4 4 4 4 5 5 6 6 7 7 8 8 9
9 9 9 10 9 9 9 8 8 7 7 7 7 7 7 7 7 7 7 8 8 8 8 9 9 9 10 10 10 9 8 6 7 8 8 8 9 9 10 10 11 11 10 10 9 9 9 9 9 9 9 9 8 8 7 6 5 4 4 4 4 5 6 6 7 8 8 9 9
8 8 8 8 8 7 7 6 6 6 6 6 6 6 7 7 7 8 8 8 8 8 8 8 8 8 7 7 7 7 7 6 6 7 8 8 8 9 9 9 9 8 8 8 8 8 8 8 8 8 8 8 8 8 8 7 6 6 5 5 5 6 7 7 8 8 9 9 9
7 7 7 7 6 6 5 5 5 5 5 5 5 6 6 7 7 7 7 7 7 6 6 6 6 5 5 5 5 5 5 5 5 6 6 6 6 6 6 6 6 6 5 5 5 6 6 7 7 7 7 7 8 8 8 7 7 7 7 7 7 8 8 9 9 9 9 9 10
6 6 5 5 5 5 5 5 5 5 5 5 5 5 6 6 6 6 6 5 5 5 4 4 4 3 3 3 3 4 4 3 4 4 4 4 4 5 5 4 5 5 4 4 4 4 5 5 6 7 7 7 8 8 8 8 8 8 8 9 9 9 9 9 9 9 9 9 9
4 4 4 3 4 4 4 4 4 5 5 5 5 5 6 6 5 5 5 4 4 3 3 2 3 3 3 3 3 3 3 4 4 4 5 5 5 5 5 4 4 5 4 4 3 3 4 4 5 6 7 8 8 8 8 8 8 8 9 9 10 10 10 10 10 10 10 10 9
3 2 2 2 3 3 4 4 4 5 5 6 6 6 6 5 5 5 4 4 3 3 3 4 4 4 4 4 4 4 5 5 6 6 6 6 5 5 5 4 4 4 4 3 3 4 4 5 5 6 7 8 8 9 9 9 9 9 9 9 10 10 10 11 11 11 10 10 9
1 1 2 2 3 3 4 4 5 5 6 6 6 6 6 5 5 5 5 5 5 5 5 6 6 5 5 6 6 6 6 6 6 6 6 7 7 6 6 5 4 4 4 4 4 5 6 8 8 8 8 8 9 9 9 9 9 10 10 10 10 10 10 10 10 10 10 9 9
1 1 2 2 3 4 5 5 5 6 6 6 7 6 6 6 5 5 6 6 6 6 6 6 5 5 5 5 6 7 6 6 6 6 7 7 7 7 6 5 5 4 4 4 5 6 7 9 10 10 9 9 9 9 9 9 10 10 10 9 9 9 10 10 10 10 9 9 9
1 1 2 3 4 4 5 5 6 6 6 6 6 6 6 6 7 7 7 7 6 6 6 5 5 4 4 5 6 6 7 6 6 6 6 7 7 7 7 6 5 5 5 5 5 7 8 9 10 10 9 8 8 9 9 9 9 9 9 9 9 9 9 9 9 9 9 10 10
1 1 2 3 4 4 5 5 6 6 6 6 6 6 6 6 6 6 6 6 6 6 5 5 4 4 5 6 6 7 7 7 6 6 6 6 7 7 7 7 7 5 4 4 5 7 8 9 9 9 9 8 7 7 7 8 8 8 8 8 8 9 9 9 9 9 9 10 10
1 2 2 3 4 4 4 5 5 5 5 5 5 6 6 6 6 6 6 6 7 6 6 5 5 6 6 7 7 7 7 7 6 6 6 7 7 7 8 8 7 5 3 3 4 6 8 8 8 8 8 8 8 8 8 8 9 9 9 8 9 10 10 10 11 11 11 10 11
2 2 2 3 3 3 4 4 4 4 4 4 5 6 6 6 6 6 6 6 7 7 6 7 7 7 8 8 7 7 7 7 7 7 7 7 7 8 8 8 7 4 3 4 5 6 7 8 8 8 9 9 8 8 9 10 10 10 10 10 10 11 11 11 11 11 12 12 11
3 3 2 2 2 3 3 3 3 3 4 4 5 6 6 6 6 6 6 6 7 7 8 8 8 8 9 9 8 8 8 8 8 8 8 8 8 9 9 9 6 3 4 4 5 6 8 8 9 10 10 10 9 10 11 11 11 11 11 12 12 13 12 11 11 11 12 13 12
3 3 2 2 2 2 2 2 2 3 3 4 5 6 6 7 7 7 7 7 7 8 9 9 9 9 9 9 9 9 9 8 8 9 9 9 9 10 10 10 6 4 6 4 5 7 8 9 10 10 11 11 10 11 12 12 11 11 11 11 12 12 13 13 12 12 12 12 12
3 3 2 2 2 2 2 2 2 3 4 4 5 6 6 7 7 7 7 7 7 8 8 9 9 9 9 9 9 9 8 8 8 9 9 10 10 10 10 10 6 4 6 5 6 7 8 9 10 11 12 12 11 11 12 13 12 11 12 12 12 12 12 12 12 12 12 13 12
2 2 2 2 2 2 2 3 3 4 4 5 6 6 7 7 8 8 7 7 8 8 8 9 9 9 8 8 8 8 8 8 8 8 9 9 10 10 10 11 7 4 5 5 6 7 9 10 11 12 13 12 10 11 12 13 13 13 13 13 13 13 12 12 12 12 12 12 12
1 1 2 2 2 2 3 4 4 5 5 5 6 7 7 8 8 8 8 8 8 9 9 9 9 9 9 9 8 8 8 8 8 8 8 8 9 10 11 11 10 6 4 5 6 8 9 11 12 13 13 12 10 10 11 11 11 12 13 13 13 12 12 11 11 11 11 11 11
2 2 2 3 3 3 4 4 5 6 6 6 7 7 8 8 8 8 8 8 8 9 9 9 9 9 9 9 8 8 8 9 8 8 8 8 9 9 10 11 11 9 7 6 7 8 10 11 12 13 13 11 10 10 10 10 10 10 11 12 12 11 11 10 10 10 11 11 11
2 2 3 3 4 4 5 5 6 6 7 7 8 8 8 8 8 8 8 7 8 9 9 9 9 9 9 9 9 9 9 9 8 8 7 8 8 9 10 11 11 11 9 8 8 9 10 11 12 13 12 11 11 10 10 9 9 9 10 10 10 10 10 9 9 9 10 10 11
3 3 3 4 4 5 6 6 7 7 7 8 8 8 9 9 8 8 7 7 8 8 9 9 9 9 9 9 8 8 9 9 8 7 6 7 7 8 9 10 11 11 10 10 10 10 11 12 12 13 12 11 11 10 9 8 9 9 9 9 8 9 9 9 8 8 9 10 11
3 4 4 5 5 6 6 7 7 7 8 8 8 8 8 8 8 7 7 7 7 8 8 8 9 9 9 8 8 8 8 9 9 8 6 6 6 7 7 9 10 11 11 11 11 11 12 12 13 13 12 10 10 9 8 8 9 9 9 8 7 8 8 8 8 7 8 9 11
4 4 5 5 5 6 7 7 8 8 8 8 8 8 8 7 7 7 7 7 8 8 8 8 9 9 9 8 8 8 8 9 9 9 8 7 7 7 7 8 10 11 11 11 11 11 12 12 13 13 12 10 9 8 8 7 8 9 9 8 8 7 7 8 8 8 8 9 9
Wind_Direction
6 13 17 13 329 313 312 319 319 318 319 324 329 331 331 327 322 317 313 308 305 304 302 301 300 300 299 298 293 289 284 280 276 276 279 286 293 300 304 303 300 298 300 306 267 250 254 260 260 252 224 181 115 117 118 112 114 106 100 99 94 89 89 93 96 96 96 96 96
351 352 350 312 261 278 298 315 320 322 325 329 331 330 327 321 315 310 306 303 302 300 299 296 296 295 295 294 289 283 278 274 270 268 269 276 287 296 300 297 284 257 233 221 222 231 239 232 228 206 179 175 166 155 147 138 130 120 112 108 102 96 92 93 98 103 109 114 118
340 337 329 320 321 323 326 328 328 329 329 330 330 325 319 313 306 301 298 297 296 295 294 292 293 293 293 291 284 278 274 272 269 269 270 276 282 282 276 266 249 227 215 215 218 220 216 202 200 194 187 188 183 171 157 143 140 138 134 130 129 129 129 124 126 129 132 135 137
330 330 331 335 336 335 333 331 328 327 327 327 323 317 311 305 299 294 291 291 291 290 290 291 292 292 290 286 281 276 272 270 271 272 274 275 269 262 257 252 246 233 219 211 210 205 199 195 196 200 204 204 201 192 181 172 171 166 158 149 147 146 145 143 147 150 152 151 149
330 334 336 337 336 333 330 326 323 322 321 319 313 309 305 302 298 294 292 291 291 291 291 292 292 291 287 281 276 271 267 263 264 265 266 263 255 253 252 251 244 233 219 207 201 197 197 200 206 213 217 217 215 209 199 190 184 173 158 143 141 144 149 153 157 160 161 159 159
335 335 334 331 330 326 322 320 318 316 313 309 305 304 305 306 305 303 301 298 296 295 294 292 290 285 280 274 269 265 260 255 252 253 254 254 251 249 249 249 243 232 219 210 203 201 206 217 224 227 226 227 222 214 204 197 182 163 147 142 149 157 162 164 165 167 169 170 170
331 327 323 322 323 321 319 317 315 312 308 303 303 304 306 307 306 305 303 301 298 296 293 289 282 276 272 268 264 259 255 250 247 248 250 253 250 246 243 243 238 230 224 220 217 216 219 228 234 231 223 226 221 206 193 183 171 163 161 165 169 172 173 172 172 174 178 181 182
320 317 317 319 319 318 316 314 310 307 305 303 304 306 306 305 303 302 300 298 295 293 290 285 279 274 270 266 262 257 254 251 249 248 248 251 246 244 243 243 238 234 232 233 232 230 228 231 240 238 226 213 200 185 180 178 180 179 179 180 179 179 180 181 181 183 187 191 192
309 311 314 315 315 314 312 309 306 303 301 301 304 306 306 305 301 298 296 294 293 291 289 285 280 274 269 263 260 256 254 253 254 253 250 248 246 245 245 244 241 240 240 241 240 238 236 236 243 240 227 213 206 195 188 187 190 190 189 186 185 185 187 190 191 192 195 197 200
306 309 311 311 312 311 309 307 303 301 300 302 306 308 309 306 302 298 295 293 292 289 287 283 280 275 268 261 257 255 253 253 255 254 252 249 247 246 246 247 247 247 246 244 243 241 239 236 238 235 228 222 217 207 198 195 196 195 193 192 191 192 192 195 196 198 200 204 206
302 305 307 307 308 308 307 306 303 303 304 307 311 313 313 310 307 303 299 294 291 288 285 283 279 273 267 260 257 255 254 254 256 256 254 252 249 248 249 252 254 253 251 247 244 239 232 224 229 230 227 221 218 210 203 200 200 199 198 197 196 196 197 199 201 202 203 206 208
299 301 302 302 304 304 305 304 303 305 308 312 315 316 316 314 312 309 304 297 292 289 287 285 279 273 268 263 262 261 260 261 262 261 259 256 254 254 256 258 260 258 256 251 246 239 230 224 227 227 224 218 217 211 205 203 204 204 204 203 202 203 204 206 208 209 209 209 210
296 298 299 300 303 304 305 305 305 307 311 315 317 318 318 317 315 311 306 300 296 293 290 287 281 276 271 270 270 269 268 267 266 265 265 263 263 265 267 269 270 269 266 260 251 244 239 234 232 229 224 218 216 212 207 205 208 210 210 210 211 213 214 214 216 218 219 218 218
294 296 300 304 307 308 309 309 310 313 316 319 320 321 320 318 316 313 309 304 300 298 295 292 287 282 279 280 281 279 278 276 277 276 276 276 279 283 286 289 289 286 281 271 259 251 247 244 239 235 230 223 220 216 211 209 213 216 219 220 222 224 225 225 225 226 227 227 227
297 301 305 310 314 315 316 317 317 320 322 323 324 324 323 320 319 317 314 309 305 303 300 299 297 293 288 286 288 290 291 291 291 292 294 297 302 306 308 308 303 296 288 279 268 260 254 253 250 247 242 235 230 224 219 215 219 223 228 231 233 235 236 236 234 232 231 230 230
304 310 315 319 321 323 324 325 325 326 327 328 329 328 327 325 325 324 322 318 314 312 310 309 308 304 299 293 297 301 304 306 308 311 315 319 322 321 317 309 301 294 287 282 276 270 265 261 260 258 255 250 245 238 232 226 227 230 235 240 242 244 244 243 239 236 232 229 229
314 320 325 328 329 330 331 332 331 331 332 332 333 333 333 334 333 333 333 334 334 331 327 325 323 320 319 320 324 325 325 326 328 329 329 328 324 317 309 302 296 293 291 288 286 283 279 276 273 270 266 262 259 254 249 242 238 238 240 244 246 247 248 247 244 240 235 231 231
324 330 334 335 336 336 336 336 336 335 335 337 337 339 342 346 346 346 347 355 356 349 342 338 337 338 339 341 345 345 343 340 337 333 328 321 315 310 306 303 302 301 301 301 301 301 300 299 296 292 286 280 276 272 268 263 254 248 246 247 248 249 250 250 249 247 244 241 241
333 337 340 341 340 340 340 340 339 339 340 342 344 347 353 360 1 1 2 10 10 3 355 350 352 354 355 353 353 352 349 342 334 329 324 320 318 319 321 322 322 321 321 321 323 324 325 326 324 321 316 309 302 295 289 281 271 259 251 248 251 252 254 256 258 259 258 256 255
341 343 343 343 343 342 342 342 341 342 345 349 352 355 360 6 10 10 10 11 13 9 4 1 5 8 7 3 359 356 353 347 340 338 338 339 341 343 344 343 341 340 339 340 341 342 343 342 340 336 330 324 316 308 301 294 285 276 267 262 261 262 262 263 264 265 265 264 264
345 345 345 344 344 343 343 342 343 346 350 355 358 1 4 8 13 14 13 11 13 14 15 16 19 20 19 13 8 5 4 2 359 358 359 358 357 355 353 350 348 346 346 347 349 349 348 345 340 334 328 320 313 309 306 305 303 299 293 286 277 270 266 263 262 262 262 263 264
346 345 344 343 344 343 343 343 346 349 354 359 4 8 11 14 18 20 21 19 24 30 36 41 43 42 37 30 22 19 17 16 11 8 4 360 354 350 347 343 339 337 337 340 343 342 339 334 327 320 314 307 304 303 304 304 304 301 294 286 278 272 267 263 262 261 261 262 263
345 344 343 343 345 344 345 347 349 351 354 0 9 16 20 23 25 28 30 32 39 48 59 68 69 62 53 45 35 28 23 17 8 360 352 346 339 334 330 328 325 321 318 319 324 328 327 322 316 310 305 300 297 294 292 289 287 285 283 281 279 276 273 270 268 266 264 263 263
346 344 343 344 347 348 349 350 349 352 356 1 10 18 24 26 28 30 35 40 44 50 54 55 51 41 33 30 22 13 3 355 351 345 340 335 329 324 320 316 313 309 306 304 307 311 313 312 311 307 304 299 295 291 288 284 282 282 282 283 282 281 279 276 274 271 268 266 264
344 341 344 351 351 350 350 350 351 354 358 1 7 14 20 22 22 24 28 34 32 27 19 15 18 12 3 357 356 351 346 343 340 336 331 326 322 319 314 309 305 301 299 295 287 286 287 290 295 299 300 299 296 294 292 289 286 283 282 281 281 280 280 278 276 273 269 266 263
321 331 348 356 351 348 349 350 352 355 358 360 3 8 12 13 14 14 13 13 11 7 4 3 8 2 351 343 344 342 339 336 333 329 324 321 319 317 314 308 303 299 296 292 282 281 284 287 288 290 291 293 293 293 291 288 284 282 279 277 277 277 277 276 274 271 268 266 264
271 326 350 351 347 346 347 349 351 355 359 1 3 5 7 6 7 7 7 7 5 1 358 358 1 354 343 337 337 335 332 328 324 320 317 316 314 313 309 303 300 296 292 289 288 289 291 293 291 289 287 287 288 287 286 285 283 281 278 274 272 271 271 271 272 272 271 268 266
287 336 346 343 345 346 348 350 354 358 2 4 5 5 6 6 5 6 5 4 360 356 352 352 350 342 334 333 331 327 324 321 317 313 311 310 307 304 301 296 294 291 290 291 294 296 296 295 293 289 286 283 282 280 278 278 278 277 275 272 270 269 269 269 270 271 271 269 268
309 331 339 343 346 347 350 356 2 5 6 7 7 7 6 7 5 3 1 358 353 350 348 345 341 334 330 329 326 322 320 318 314 311 308 306 303 300 298 295 291 289 291 303 309 307 303 299 295 292 290 288 284 281 280 279 278 277 276 274 273 273 272 271 271 271 271 271 270
293 323 340 349 348 351 358 9 14 13 10 7 7 6 4 2 359 357 354 351 349 347 343 337 333 330 328 326 323 322 322 322 320 317 313 308 306 304 302 299 294 296 318 359 333 320 312 308 308 308 309 309 300 293 289 288 286 284 281 279 278 277 276 275 275 275 275 275 276
318 334 344 351 356 4 14 23 23 19 12 5 3 0 357 353 350 349 349 348 345 342 337 331 330 328 326 324 323 324 326 327 327 325 322 318 313 310 307 304 300 311 9 28 350 331 325 324 325 326 327 324 311 300 294 291 288 285 283 281 281 280 280 280 280 280 280 281 282
332 336 341 356 15 24 28 31 25 17 9 2 358 353 349 344 344 344 345 344 341 337 334 332 330 328 326 326 327 329 331 332 331 329 327 323 320 318 315 311 315 351 51 38 360 344 338 336 333 331 328 324 311 300 293 288 285 283 281 281 281 281 281 282 282 283 284 285 285
331 330 338 6 29 37 35 28 15 4 358 354 351 345 341 338 339 340 341 342 339 336 334 332 331 329 328 328 329 332 333 333 330 328 326 325 323 323 321 314 332 34 64 37 7 351 342 336 331 327 323 318 306 296 289 285 283 282 281 281 281 281 282 283 285 286 287 288 288
320 323 336 3 25 30 21 7 355 347 344 344 342 338 335 335 335 336 338 341 338 335 332 331 329 327 327 328 329 331 331 329 327 327 327 327 325 324 322 315 334 43 68 35 9 352 340 332 327 323 319 312 302 293 289 287 285 283 283 283 283 285 286 288 289 290 290 289 288
302 316 329 340 355 358 353 345 339 336 335 337 334 332 331 333 333 335 337 340 335 331 329 329 327 326 326 328 329 329 327 324 323 324 326 326 323 321 319 314 325 14 60 33 6 347 336 328 324 321 317 310 300 293 290 289 287 286 285 285 285 286 287 289 290 290 291 291 291
273 288 300 305 320 331 336 334 330 329 330 332 328 327 329 331 332 334 337 337 331 328 327 327 326 326 327 328 328 327 324 321 321 322 323 323 320 319 317 315 320 334 6 16 356 341 331 325 322 319 316 308 300 294 292 291 289 288 287 286 286 287 289 292 294 295 295 294 294
249 249 263 284 305 320 327 326 323 324 326 326 325 326 328 329 330 333 336 334 328 326 326 326 325 327 328 329 328 326 323 320 320 320 320 320 319 318 317 316 317 320 329 345 341 332 324 319 318 317 314 307 301 297 294 292 290 289 288 289 290 293 297 299 299 297 294 291 289
257 255 263 282 303 316 321 320 320 321 322 323 324 326 327 328 328 332 334 331 325 324 323 324 325 327 329 329 326 323 321 318 317 317 317 317 318 318 318 316 315 316 320 327 326 321 317 314 314 315 313 307 302 299 296 293 293 293 295 297 298 300 301 299 296 291 288 286 286
280 281 285 294 305 312 316 317 318 319 320 320 322 324 325 326 328 330 330 325 322 321 322 323 325 327 328 327 322 319 317 315 315 315 314 313 316 316 314 311 310 310 312 316 316 314 312 311 312 313 311 305 302 300 298 298 297 296 296 296 296 294 292 289 287 285 286 286 285
280 286 291 298 305 310 314 316 318 318 319 319 320 322 324 325 325 324 323 319 320 320 321 322 324 325 325 323 317 315 315 316 315 314 312 309 309 306 302 300 301 304 306 310 312 312 312 311 311 312 311 305 304 302 301 300 296 294 292 291 290 289 288 287 287 287 287 286 283
273 281 290 299 306 311 314 316 317 317 317 318 320 321 321 321 319 318 318 319 321 321 322 322 323 323 323 319 314 313 315 316 314 313 310 304 300 294 290 291 296 300 305 310 315 316 315 312 311 311 311 308 306 303 301 299 296 296 298 300 300 298 296 295 293 290 286 283 280